Location: JAPAN
(35.1974°N, 137.0216°E)
Time: 14:19:17
(UTC+09:00)

ISS - Visible Passes

Search period start: 22 November 2017 00:00
Search period end: 02 December 2017 00:00
Orbit: 402 x 407 km, 51.6° (Epoch: 22 November)

Date Brightness Start Highest point End Pass type
(mag) Time Alt. Az. Time Alt. Az. Time Alt. Az.
24 Nov -1.2 18:47:46 10° SSW 18:48:30 16° SSW 18:48:30 16° SSW visible
25 Nov -2.4 17:56:05 10° S 17:58:45 23° SE 17:58:49 23° SE visible
26 Nov -1.5 17:05:32 10° SE 17:06:37 11° SE 17:07:44 10° ESE visible
26 Nov -2.3 18:39:31 10° WSW 18:41:43 36° W 18:41:43 36° W visible
27 Nov -3.9 17:47:09 10° SW 17:50:24 69° SE 17:51:50 30° ENE visible
28 Nov -1.8 18:31:55 10° W 18:34:32 23° NW 18:34:32 23° NW visible
29 Nov -2.8 17:39:01 10° WSW 17:42:08 41° NW 17:44:29 16° NNE visible
30 Nov -1.2 18:25:08 10° NW 18:26:38 12° NNW 18:27:00 12° NNW visible
01 Dec -1.7 17:31:32 10° W 17:34:00 19° NNW 17:36:28 10° NNE visible
